Weather in Vabkent

Uzbekistan     40°01′22″N   64°31′00″E
temp.,
°C
wind,
m/s
gust,
m/s
humid.,
%
clouds,
%
prec.,
mm/h
press.,
hPa
HPBL,
m
13 april, tue
tue1323:00+16nne4826100 0.0 1020165
02:00+14nne34352 0.0 102069
05:00+13n444076 0.0 102056
08:00+15nne35355 0.0 1022223
11:00+20nne33230 0.0 10211052
14:00+23n22174 0.0 10191936
17:00+24nnw33165 0.0 10182228
20:00+21nw33191 0.0 101753
14 april, wed
wed1423:00+19nw34210 0.0 101754
02:00+15nne34440 0.0 101668
05:00+13n35490 0.0 101671
08:00+15n23370 0.0 1016214
11:00+20wsw35220 0.0 10161309
14:00+23w68180 0.0 10142104
17:00+23w67190 0.0 10131975
20:00+20w34290 0.0 1013162
15 april, thu
thu1523:00+16n35310 0.0 1014132
02:00+15nnw23350 0.0 101327
05:00+13ne11420 0.0 101411
08:00+17nnw23300 0.0 1015186
11:00+21nw34230 0.0 10151168
14:00+24nw441876 0.0 10142001
17:00+25nw441763 0.0 10132123
20:00+22nnw332110 0.0 101347
16 april, fri
fri1623:00
02:00+18n332623 0.0 101319
05:00+17ne22305 0.0 101312
08:00+20e12264 0.0 1014102
11:00+25n01175 0.0 10141420
14:00+27nw22125 0.0 10132362
17:00+28nnw43125 0.0 10122560
20:00+25n45178 0.0 1013100
17 april, sat
sat1723:00+23ne3421100 0.0 101261
02:00+20ne5102562 0.0 1012194
05:00+19ne472664 0.0 101297
08:00+22ene3521100 0.0 1013126
11:00+27nnw3515100 0.0 10122859
14:00+26nw10817100 0.0 10132100
17:00+24nw9617100 0.0 10142243
20:00+21wnw8929100 0.0 1016775